Date,TemperatureHighF,TemperatureAvgF,TemperatureLowF,DewpointHighF,DewpointAvgF,DewpointLowF,HumidityHigh,HumidityAvg,HumidityLow,PressureMaxIn,PressureMinIn,WindSpeedMaxMPH,WindSpeedAvgMPH,GustSpeedMaxMPH,PrecipitationSumIn
2012-12-1,34.7,29.0,23.7,33.3,26.5,20.5,95,90,86,30.57,30.43,4,0,4,0.01
2012-12-2,49.6,43.6,34.7,45.4,40.9,33.4,97,90,80,30.43,30.02,21,4,21,0.12
2012-12-3,50.4,43.9,29.6,45.6,40.3,28.3,97,87,74,30.28,30.04,14,1,17,0.01
2012-12-4,57.8,48.1,28.9,53.8,45.3,27.6,97,90,85,30.27,29.86,18,3,20,0.00
2012-12-5,58.1,42.1,29.6,53.9,36.0,18.0,96,79,59,30.25,29.84,18,3,18,0.18
2012-12-6,34.4,27.3,21.1,22.9,19.9,17.9,93,74,57,30.41,30.24,14,1,14,0.00
2012-12-7,38.5,35.0,21.5,36.8,30.8,19.8,96,85,64,30.24,30.03,16,2,16,0.16
2012-12-8,44.4,40.3,36.5,43.6,39.4,35.5,97,97,96,30.03,29.84,5,0,6,0.16
2012-12-9,44.5,41.0,36.2,43.1,36.0,32.6,97,82,65,30.29,30.01,15,1,15,0.08
2012-12-10,53.9,46.1,38.3,51.4,44.6,37.1,98,95,88,30.05,29.51,17,2,19,0.11
2012-12-11,42.8,35.9,25.2,39.5,31.5,23.7,96,84,67,30.21,29.64,19,2,19,0.07
2012-12-12,40.7,28.0,20.0,31.4,24.6,18.3,96,88,64,30.44,30.21,5,0,5,0.08
2012-12-13,41.4,29.6,22.5,31.6,26.0,21.0,96,87,61,30.49,30.29,5,0,5,0.05
2012-12-14,45.0,33.1,19.9,33.4,26.8,18.2,96,79,56,30.29,30.13,14,1,14,0.08
2012-12-15,40.6,32.8,25.6,33.3,27.3,23.0,96,81,62,30.33,30.20,8,0,8,0.03
2012-12-16,37.6,33.9,28.5,32.4,28.7,22.8,88,81,78,30.24,29.97,18,1,18,0.01
2012-12-17,41.2,38.6,36.0,38.3,35.8,31.9,96,90,80,29.97,29.69,9,1,9,0.22
2012-12-18,46.6,42.1,37.4,44.4,40.6,36.1,97,94,88,29.69,29.43,17,1,18,0.59
2012-12-19,43.9,40.2,37.5,37.5,33.0,28.6,89,76,68,30.11,29.57,19,4,22,0.00
2012-12-20,39.9,34.5,24.5,35.7,28.8,23.0,95,80,66,30.24,29.83,15,1,15,0.07
2012-12-21,51.4,41.9,36.9,50.1,37.6,31.2,96,85,73,29.83,28.96,26,3,28,0.27
2012-12-22,37.2,33.2,30.0,33.0,25.8,20.4,87,74,62,29.77,29.21,22,4,22,0.00
2012-12-23,37.8,32.9,28.7,29.9,25.4,22.8,87,74,59,29.89,29.76,17,1,18,0.00
2012-12-24,36.1,32.1,27.6,27.6,24.5,21.9,88,74,58,30.10,29.88,12,1,12,0.00
2012-12-25,32.8,29.7,27.2,28.2,25.3,21.0,93,83,75,30.30,29.94,12,2,13,0.01
2012-12-26,27.5,24.3,18.6,25.5,19.4,14.5,94,81,75,30.35,29.75,10,2,11,0.00
2012-12-27,35.8,29.7,25.9,32.0,27.1,20.8,95,90,81,29.82,29.48,17,4,18,0.01
2012-12-28,34.4,29.5,25.6,25.9,23.9,20.5,84,79,70,30.09,29.82,18,3,18,0.02
2012-12-29,32.0,28.7,26.6,28.4,26.0,24.6,94,90,80,30.06,29.57,8,0,9,0.00
2012-12-30,28.3,24.2,20.3,26.3,17.6,12.8,94,76,59,30.17,29.60,23,5,28,0.00
2012-12-31,35.5,25.2,12.7,26.3,19.6,9.0,92,79,62,30.14,29.80,6,0,9,0.03